QPF
0.01 0.01 0.01 0.01 0.01 0.01 0.01 0.01 0.01 0.01 0.02 0.02 0.02 0.03 0.03 0.03 0.03 0.03 0.04 0.07 0.09 0.05 0.06 0.05 0.07 0.08 0.07 0.06 0.06 0.06 0.05 0.06 0.07 0.07 0.06 0.05 0.04 0.04 0.03 0.03 0.03 0.04 0.02
0.02 0.02 0.01 0.01 0.01 0.01 0.01 0.01 0.01 0.01 0.01 0.02 0.02 0.03 0.04 0.06 0.05 0.05 0.05 0.06 0.05 0.06 0.06 0.08 0.08 0.09 0.07 0.06 0.06 0.07 0.06 0.05 0.05 0.06 0.08 0.07 0.05 0.03 0.02 0.03 0.03 0.03 0.02
0.01 0.01 0.00 0.01 0.02 0.02 0.01 0.01 0.01 0.01 0.02 0.02 0.02 0.04 0.05 0.06 0.08 0.07 0.07 0.10 0.09 0.06 0.06 0.07 0.07 0.06 0.06 0.05 0.06 0.06 0.05 0.06 0.06 0.07 0.07 0.08 0.07 0.06 0.04 0.02 0.03 0.03 0.03
0.01 0.01 0.01 0.01 0.03 0.02 0.02 0.02 0.02 0.02 0.02 0.02 0.02 0.05 0.06 0.11 0.15 0.14 0.10 0.08 0.07 0.05 0.05 0.05 0.06 0.05 0.04 0.05 0.04 0.04 0.05 0.08 0.09 0.07 0.06 0.06 0.05 0.07 0.07 0.03 0.02 0.03 0.03
0.01 0.01 0.01 0.01 0.02 0.03 0.03 0.02 0.02 0.02 0.03 0.03 0.04 0.07 0.08 0.15 0.20 0.15 0.10 0.07 0.06 0.05 0.04 0.04 0.05 0.06 0.05 0.05 0.04 0.04 0.05 0.06 0.07 0.08 0.06 0.05 0.04 0.06 0.06 0.06 0.06 0.04 0.03
0.01 0.01 0.01 0.01 0.03 0.03 0.03 0.02 0.01 0.01 0.02 0.02 0.03 0.05 0.06 0.08 0.10 0.12 0.10 0.07 0.05 0.05 0.04 0.04 0.05 0.06 0.07 0.06 0.05 0.05 0.05 0.06 0.06 0.07 0.05 0.06 0.06 0.06 0.06 0.05 0.06 0.06 0.05
0.01 0.02 0.02 0.02 0.02 0.02 0.02 0.02 0.01 0.02 0.02 0.02 0.04 0.06 0.07 0.07 0.08 0.08 0.06 0.05 0.05 0.05 0.05 0.04 0.05 0.05 0.07 0.06 0.05 0.06 0.06 0.07 0.07 0.07 0.06 0.06 0.06 0.06 0.05 0.06 0.06 0.04 0.04
0.01 0.01 0.02 0.02 0.02 0.02 0.02 0.02 0.02 0.02 0.02 0.02 0.03 0.05 0.06 0.06 0.06 0.06 0.05 0.04 0.04 0.05 0.04 0.03 0.04 0.05 0.06 0.05 0.05 0.05 0.05 0.06 0.08 0.06 0.06 0.05 0.05 0.05 0.05 0.06 0.06 0.04 0.03
0.01 0.01 0.01 0.01 0.02 0.03 0.04 0.02 0.02 0.02 0.01 0.02 0.02 0.03 0.04 0.04 0.05 0.05 0.04 0.04 0.05 0.04 0.04 0.03 0.03 0.05 0.07 0.06 0.05 0.06 0.04 0.05 0.07 0.07 0.07 0.05 0.05 0.03 0.03 0.03 0.04 0.04 0.03
0.00 0.00 0.00 0.01 0.01 0.02 0.03 0.03 0.03 0.02 0.01 0.01 0.01 0.02 0.04 0.04 0.04 0.04 0.04 0.05 0.05 0.04 0.04 0.04 0.04 0.04 0.05 0.05 0.06 0.06 0.05 0.06 0.05 0.06 0.06 0.06 0.05 0.04 0.04 0.04 0.04 0.03 0.03
0.00 0.00 0.00 0.01 0.01 0.01 0.02 0.03 0.03 0.03 0.02 0.01 0.02 0.02 0.02 0.03 0.03 0.03 0.03 0.04 0.04 0.05 0.05 0.04 0.04 0.04 0.03 0.04 0.04 0.05 0.06 0.06 0.05 0.05 0.06 0.05 0.04 0.04 0.04 0.04 0.03 0.02 0.02
0.00 0.01 0.01 0.01 0.02 0.02 0.02 0.01 0.02 0.04 0.03 0.03 0.03 0.03 0.02 0.02 0.03 0.03 0.04 0.04 0.04 0.05 0.04 0.04 0.04 0.04 0.04 0.04 0.04 0.04 0.06 0.06 0.06 0.05 0.05 0.05 0.04 0.03 0.03 0.02 0.02 0.02 0.03
0.01 0.01 0.02 0.02 0.02 0.02 0.01 0.01 0.02 0.03 0.04 0.05 0.05 0.04 0.03 0.02 0.02 0.03 0.03 0.04 0.04 0.04 0.03 0.04 0.05 0.05 0.06 0.05 0.05 0.06 0.05 0.04 0.04 0.04 0.05 0.05 0.05 0.04 0.03 0.02 0.02 0.02 0.02
0.01 0.01 0.01 0.02 0.02 0.01 0.01 0.02 0.03 0.04 0.05 0.06 0.05 0.04 0.03 0.03 0.04 0.03 0.03 0.03 0.04 0.04 0.04 0.05 0.05 0.05 0.06 0.06 0.06 0.07 0.06 0.04 0.04 0.05 0.05 0.06 0.06 0.05 0.04 0.03 0.02 0.03 0.03
0.01 0.00 0.00 0.01 0.01 0.01 0.01 0.01 0.01 0.02 0.03 0.04 0.04 0.04 0.05 0.05 0.05 0.04 0.04 0.03 0.02 0.02 0.03 0.04 0.04 0.03 0.04 0.05 0.07 0.08 0.09 0.09 0.09 0.09 0.08 0.07 0.05 0.04 0.03 0.03 0.03 0.04 0.04
0.00 0.00 0.01 0.01 0.01 0.01 0.01 0.01 0.01 0.02 0.03 0.04 0.05 0.06 0.06 0.05 0.06 0.06 0.05 0.04 0.03 0.02 0.03 0.03 0.03 0.03 0.02 0.03 0.05 0.08 0.10 0.10 0.10 0.11 0.09 0.07 0.05 0.04 0.03 0.03 0.03 0.04 0.04
0.00 0.01 0.01 0.01 0.01 0.01 0.01 0.02 0.02 0.03 0.04 0.07 0.09 0.09 0.07 0.05 0.05 0.08 0.08 0.07 0.04 0.03 0.02 0.02 0.02 0.03 0.02 0.02 0.01 0.02 0.04 0.06 0.07 0.07 0.05 0.03 0.03 0.03 0.03 0.03 0.03 0.02 0.02
0.01 0.01 0.01 0.01 0.01 0.01 0.03 0.04 0.02 0.03 0.04 0.06 0.07 0.06 0.06 0.05 0.05 0.05 0.07 0.08 0.06 0.04 0.03 0.02 0.01 0.02 0.03 0.03 0.02 0.01 0.01 0.02 0.02 0.03 0.02 0.02 0.02 0.02 0.03 0.03 0.03 0.03 0.03
0.01 0.01 0.01 0.01 0.01 0.01 0.02 0.06 0.03 0.02 0.03 0.04 0.04 0.03 0.03 0.04 0.03 0.03 0.03 0.03 0.03 0.04 0.04 0.03 0.02 0.03 0.04 0.04 0.03 0.02 0.02 0.02 0.02 0.02 0.03 0.03 0.02 0.03 0.03 0.03 0.04 0.05 0.05
0.01 0.01 0.01 0.01 0.01 0.01 0.01 0.03 0.04 0.03 0.03 0.03 0.03 0.03 0.03 0.03 0.03 0.03 0.02 0.02 0.02 0.02 0.03 0.04 0.05 0.06 0.05 0.04 0.04 0.04 0.04 0.04 0.05 0.06 0.06 0.07 0.06 0.04 0.04 0.04 0.05 0.06 0.07
0.01 0.01 0.01 0.01 0.02 0.02 0.02 0.01 0.02 0.02 0.03 0.04 0.03 0.04 0.04 0.05 0.05 0.04 0.03 0.03 0.03 0.03 0.04 0.05 0.06 0.05 0.04 0.03 0.03 0.03 0.03 0.05 0.06 0.06 0.06 0.07 0.07 0.05 0.05 0.05 0.07 0.07 0.06
0.01 0.01 0.01 0.01 0.02 0.02 0.02 0.03 0.03 0.02 0.03 0.04 0.05 0.06 0.07 0.06 0.04 0.03 0.03 0.03 0.03 0.03 0.03 0.03 0.02 0.02 0.02 0.02 0.02 0.03 0.03 0.05 0.05 0.06 0.05 0.05 0.04 0.03 0.03 0.04 0.04 0.04 0.03
0.01 0.01 0.01 0.02 0.02 0.03 0.04 0.04 0.04 0.02 0.02 0.04 0.06 0.08 0.08 0.07 0.06 0.03 0.02 0.02 0.03 0.03 0.02 0.02 0.02 0.01 0.01 0.01 0.01 0.01 0.02 0.03 0.03 0.03 0.04 0.03 0.02 0.02 0.02 0.02 0.02 0.02 0.02
0.01 0.01 0.01 0.03 0.05 0.05 0.04 0.06 0.06 0.03 0.03 0.04 0.06 0.07 0.07 0.06 0.05 0.03 0.02 0.02 0.02 0.03 0.03 0.02 0.02 0.02 0.02 0.02 0.02 0.02 0.02 0.02 0.03 0.03 0.04 0.04 0.04 0.03 0.02 0.02 0.02 0.03 0.04
0.01 0.01 0.01 0.03 0.06 0.07 0.06 0.06 0.07 0.04 0.03 0.04 0.05 0.05 0.05 0.06 0.05 0.05 0.04 0.03 0.03 0.03 0.03 0.03 0.04 0.03 0.02 0.03 0.03 0.03 0.03 0.03 0.03 0.03 0.03 0.04 0.04 0.04 0.03 0.03 0.03 0.05 0.06
0.02 0.01 0.02 0.02 0.05 0.08 0.09 0.09 0.09 0.05 0.04 0.03 0.04 0.04 0.04 0.05 0.05 0.04 0.03 0.03 0.02 0.02 0.02 0.02 0.02 0.02 0.02 0.02 0.02 0.03 0.03 0.03 0.03 0.03 0.03 0.03 0.03 0.03 0.03 0.03 0.03 0.03 0.04
MSLP
1012.89 1012.30 1011.81 1011.43 1011.16 1010.99 1010.91 1010.91 1010.97 1011.11 1011.32 1011.63 1012.02 1012.49 1013.00 1013.53 1014.01 1014.39 1014.62 1014.69 1014.58 1014.33 1013.97 1013.58 1013.23 1012.95 1012.80 1012.79 1012.89 1013.06 1013.26 1013.44 1013.56 1013.60 1013.55 1013.44 1013.30 1013.17 1013.07 1013.02 1013.04 1013.10 1013.18
1014.02 1013.51 1013.05 1012.66 1012.34 1012.10 1011.92 1011.81 1011.75 1011.76 1011.86 1012.06 1012.35 1012.74 1013.19 1013.67 1014.11 1014.47 1014.70 1014.76 1014.64 1014.37 1013.99 1013.56 1013.15 1012.82 1012.61 1012.53 1012.58 1012.72 1012.91 1013.09 1013.23 1013.30 1013.29 1013.22 1013.12 1013.01 1012.93 1012.91 1012.94 1013.01 1013.10
1014.92 1014.52 1014.13 1013.78 1013.48 1013.21 1012.99 1012.80 1012.66 1012.58 1012.56 1012.63 1012.80 1013.06 1013.40 1013.77 1014.14 1014.44 1014.63 1014.67 1014.55 1014.28 1013.91 1013.47 1013.04 1012.68 1012.42 1012.29 1012.28 1012.38 1012.54 1012.71 1012.85 1012.94 1012.96 1012.93 1012.87 1012.80 1012.75 1012.75 1012.80 1012.89 1012.99
1015.62 1015.34 1015.04 1014.76 1014.50 1014.26 1014.05 1013.84 1013.66 1013.50 1013.39 1013.34 1013.37 1013.48 1013.66 1013.89 1014.13 1014.34 1014.47 1014.48 1014.37 1014.12 1013.77 1013.35 1012.93 1012.55 1012.26 1012.08 1012.02 1012.06 1012.18 1012.32 1012.45 1012.55 1012.59 1012.60 1012.57 1012.53 1012.52 1012.54 1012.60 1012.69 1012.81
1016.23 1016.04 1015.83 1015.61 1015.41 1015.23 1015.05 1014.87 1014.68 1014.49 1014.30 1014.15 1014.04 1013.98 1013.99 1014.06 1014.16 1014.25 1014.30 1014.28 1014.16 1013.94 1013.62 1013.23 1012.83 1012.45 1012.14 1011.92 1011.80 1011.78 1011.83 1011.93 1012.05 1012.14 1012.20 1012.23 1012.23 1012.23 1012.23 1012.26 1012.32 1012.42 1012.52
1016.85 1016.70 1016.54 1016.37 1016.22 1016.09 1015.96 1015.82 1015.65 1015.45 1015.22 1014.99 1014.76 1014.55 1014.40 1014.30 1014.24 1014.21 1014.18 1014.11 1013.98 1013.77 1013.48 1013.13 1012.75 1012.37 1012.03 1011.77 1011.59 1011.50 1011.49 1011.54 1011.63 1011.71 1011.78 1011.83 1011.86 1011.88 1011.90 1011.93 1011.98 1012.05 1012.14
1017.54 1017.39 1017.22 1017.07 1016.94 1016.84 1016.75 1016.64 1016.51 1016.32 1016.07 1015.78 1015.46 1015.14 1014.84 1014.58 1014.39 1014.24 1014.11 1013.99 1013.83 1013.63 1013.36 1013.03 1012.66 1012.28 1011.91 1011.59 1011.35 1011.19 1011.12 1011.12 1011.17 1011.24 1011.33 1011.40 1011.45 1011.49 1011.52 1011.55 1011.59 1011.63 1011.68
1018.32 1018.11 1017.89 1017.69 1017.55 1017.44 1017.37 1017.30 1017.19 1017.02 1016.77 1016.45 1016.07 1015.66 1015.25 1014.88 1014.56 1014.30 1014.10 1013.91 1013.73 1013.52 1013.25 1012.92 1012.55 1012.14 1011.73 1011.36 1011.04 1010.82 1010.68 1010.63 1010.66 1010.73 1010.83 1010.93 1011.02 1011.09 1011.13 1011.16 1011.19 1011.21 1011.23
1019.12 1018.81 1018.50 1018.23 1018.02 1017.89 1017.81 1017.74 1017.65 1017.50 1017.26 1016.93 1016.52 1016.05 1015.58 1015.12 1014.72 1014.38 1014.10 1013.87 1013.65 1013.41 1013.13 1012.79 1012.39 1011.94 1011.49 1011.05 1010.67 1010.37 1010.18 1010.09 1010.09 1010.17 1010.29 1010.43 1010.56 1010.67 1010.75 1010.79 1010.82 1010.83 1010.83
1019.82 1019.40 1018.98 1018.61 1018.33 1018.14 1018.03 1017.95 1017.86 1017.71 1017.49 1017.16 1016.75 1016.27 1015.77 1015.27 1014.82 1014.42 1014.09 1013.82 1013.56 1013.29 1012.99 1012.62 1012.18 1011.70 1011.19 1010.70 1010.25 1009.89 1009.65 1009.52 1009.51 1009.59 1009.74 1009.92 1010.10 1010.26 1010.38 1010.46 1010.51 1010.53 1010.54
1020.30 1019.77 1019.25 1018.79 1018.44 1018.18 1018.02 1017.91 1017.81 1017.67 1017.45 1017.15 1016.75 1016.28 1015.78 1015.28 1014.81 1014.40 1014.04 1013.74 1013.45 1013.16 1012.82 1012.43 1011.96 1011.44 1010.89 1010.34 1009.84 1009.43 1009.14 1008.99 1008.96 1009.05 1009.21 1009.43 1009.65 1009.86 1010.04 1010.16 1010.25 1010.31 1010.35
1020.49 1019.89 1019.29 1018.77 1018.35 1018.04 1017.82 1017.68 1017.55 1017.41 1017.20 1016.92 1016.55 1016.11 1015.64 1015.16 1014.70 1014.29 1013.93 1013.62 1013.32 1013.01 1012.66 1012.24 1011.76 1011.21 1010.63 1010.05 1009.51 1009.06 1008.73 1008.54 1008.49 1008.57 1008.74 1008.98 1009.23 1009.48 1009.70 1009.88 1010.02 1010.13 1010.22
1020.40 1019.76 1019.14 1018.58 1018.12 1017.76 1017.50 1017.32 1017.17 1017.01 1016.81 1016.54 1016.20 1015.80 1015.36 1014.92 1014.49 1014.10 1013.76 1013.45 1013.15 1012.84 1012.49 1012.08 1011.59 1011.04 1010.45 1009.85 1009.29 1008.82 1008.46 1008.24 1008.16 1008.21 1008.36 1008.58 1008.84 1009.11 1009.36 1009.58 1009.77 1009.94 1010.09
1020.10 1019.47 1018.86 1018.30 1017.82 1017.44 1017.15 1016.93 1016.74 1016.56 1016.35 1016.09 1015.77 1015.40 1015.00 1014.59 1014.20 1013.84 1013.52 1013.23 1012.95 1012.66 1012.32 1011.93 1011.46 1010.93 1010.36 1009.77 1009.22 1008.73 1008.34 1008.09 1007.97 1007.97 1008.08 1008.26 1008.50 1008.75 1009.00 1009.24 1009.47 1009.68 1009.90
1019.74 1019.15 1018.57 1018.02 1017.55 1017.15 1016.83 1016.58 1016.36 1016.14 1015.91 1015.64 1015.33 1014.98 1014.60 1014.23 1013.86 1013.53 1013.23 1012.96 1012.70 1012.43 1012.12 1011.76 1011.34 1010.85 1010.32 1009.77 1009.24 1008.76 1008.37 1008.08 1007.91 1007.86 1007.91 1008.03 1008.21 1008.42 1008.64 1008.87 1009.11 1009.35 1009.61
1019.46 1018.91 1018.37 1017.85 1017.38 1016.97 1016.62 1016.32 1016.06 1015.80 1015.53 1015.24 1014.92 1014.57 1014.21 1013.84 1013.49 1013.17 1012.88 1012.62 1012.38 1012.13 1011.86 1011.54 1011.17 1010.75 1010.28 1009.79 1009.31 1008.86 1008.47 1008.17 1007.97 1007.86 1007.84 1007.89 1008.00 1008.14 1008.32 1008.51 1008.73 1008.97 1009.24
1019.35 1018.85 1018.33 1017.83 1017.36 1016.92 1016.53 1016.19 1015.87 1015.56 1015.25 1014.92 1014.57 1014.21 1013.83 1013.45 1013.09 1012.76 1012.47 1012.21 1011.97 1011.73 1011.49 1011.22 1010.91 1010.56 1010.17 1009.75 1009.34 1008.94 1008.59 1008.30 1008.08 1007.93 1007.86 1007.85 1007.89 1007.97 1008.09 1008.23 1008.41 1008.63 1008.88
1019.44 1018.96 1018.45 1017.94 1017.45 1016.98 1016.54 1016.14 1015.77 1015.40 1015.04 1014.67 1014.29 1013.89 1013.49 1013.08 1012.69 1012.33 1012.01 1011.72 1011.46 1011.23 1011.00 1010.77 1010.51 1010.23 1009.92 1009.59 1009.26 1008.94 1008.65 1008.40 1008.20 1008.06 1007.97 1007.92 1007.92 1007.95 1008.01 1008.11 1008.23 1008.40 1008.61
1019.67 1019.18 1018.66 1018.12 1017.58 1017.07 1016.59 1016.13 1015.71 1015.30 1014.89 1014.48 1014.06 1013.63 1013.18 1012.74 1012.30 1011.89 1011.52 1011.19 1010.90 1010.64 1010.41 1010.19 1009.98 1009.76 1009.53 1009.29 1009.05 1008.82 1008.61 1008.43 1008.29 1008.18 1008.12 1008.09 1008.08 1008.09 1008.13 1008.18 1008.26 1008.37 1008.51
1019.92 1019.40 1018.83 1018.25 1017.67 1017.12 1016.59 1016.10 1015.64 1015.20 1014.76 1014.33 1013.87 1013.41 1012.92 1012.43 1011.95 1011.48 1011.05 1010.66 1010.31 1010.02 1009.77 1009.56 1009.36 1009.19 1009.02 1008.86 1008.71 1008.57 1008.45 1008.37 1008.31 1008.28 1008.28 1008.30 1008.33 1008.36 1008.40 1008.44 1008.48 1008.53 1008.61
1020.06 1019.48 1018.87 1018.25 1017.63 1017.05 1016.50 1015.99 1015.52 1015.07 1014.63 1014.18 1013.72 1013.23 1012.72 1012.19 1011.65 1011.13 1010.63 1010.18 1009.78 1009.44 1009.16 1008.93 1008.74 1008.59 1008.46 1008.36 1008.28 1008.23 1008.20 1008.21 1008.25 1008.32 1008.40 1008.50 1008.60 1008.69 1008.76 1008.81 1008.83 1008.84 1008.84
1019.98 1019.36 1018.71 1018.05 1017.42 1016.83 1016.29 1015.80 1015.34 1014.92 1014.50 1014.06 1013.60 1013.11 1012.58 1012.02 1011.44 1010.87 1010.33 1009.82 1009.37 1008.98 1008.66 1008.41 1008.21 1008.06 1007.95 1007.88 1007.84 1007.85 1007.89 1007.98 1008.10 1008.26 1008.44 1008.63 1008.81 1008.97 1009.10 1009.17 1009.20 1009.18 1009.12
1019.65 1019.00 1018.33 1017.68 1017.06 1016.50 1015.99 1015.54 1015.14 1014.75 1014.37 1013.97 1013.53 1013.05 1012.52 1011.94 1011.35 1010.75 1010.16 1009.62 1009.13 1008.71 1008.35 1008.07 1007.85 1007.68 1007.57 1007.50 1007.48 1007.50 1007.57 1007.70 1007.87 1008.09 1008.35 1008.61 1008.87 1009.11 1009.29 1009.40 1009.45 1009.42 1009.32
1019.12 1018.46 1017.81 1017.19 1016.62 1016.11 1015.67 1015.28 1014.94 1014.61 1014.28 1013.92 1013.51 1013.05 1012.53 1011.96 1011.35 1010.75 1010.15 1009.60 1009.09 1008.65 1008.28 1007.97 1007.73 1007.54 1007.40 1007.30 1007.25 1007.25 1007.31 1007.42 1007.60 1007.84 1008.13 1008.44 1008.75 1009.03 1009.26 1009.42 1009.48 1009.46 1009.34
1018.47 1017.85 1017.25 1016.68 1016.18 1015.75 1015.38 1015.07 1014.79 1014.53 1014.24 1013.92 1013.54 1013.10 1012.60 1012.04 1011.46 1010.86 1010.28 1009.74 1009.25 1008.81 1008.44 1008.13 1007.87 1007.65 1007.47 1007.32 1007.22 1007.16 1007.15 1007.22 1007.35 1007.56 1007.82 1008.13 1008.45 1008.75 1009.01 1009.20 1009.29 1009.27 1009.15
1017.85 1017.28 1016.75 1016.27 1015.85 1015.49 1015.20 1014.95 1014.73 1014.51 1014.26 1013.97 1013.61 1013.19 1012.71 1012.18 1011.62 1011.06 1010.52 1010.01 1009.56 1009.16 1008.81 1008.51 1008.25 1008.01 1007.79 1007.59 1007.41 1007.27 1007.18 1007.15 1007.20 1007.32 1007.52 1007.78 1008.07 1008.36 1008.62 1008.81 1008.91 1008.91 1008.81
Thickness
5804 5802 5799 5797 5793 5789 5785 5782 5779 5775 5772 5770 5768 5764 5763 5762 5761 5759 5756 5754 5752 5751 5750 5751 5749 5748 5748 5746 5745 5743 5740 5740 5741 5739 5738 5739 5740 5739 5738 5738 5738 5737 5735
5798 5796 5795 5793 5790 5786 5783 5779 5776 5774 5771 5769 5766 5764 5762 5761 5760 5757 5753 5751 5750 5749 5750 5748 5748 5746 5745 5743 5742 5740 5739 5740 5740 5737 5735 5733 5733 5734 5738 5736 5735 5735 5735
5794 5791 5790 5789 5787 5783 5780 5779 5775 5772 5769 5767 5765 5763 5759 5756 5755 5753 5751 5750 5748 5747 5746 5746 5745 5744 5744 5742 5740 5739 5736 5736 5737 5738 5735 5731 5728 5731 5734 5733 5734 5732 5732
5794 5791 5788 5786 5784 5782 5780 5776 5772 5769 5767 5765 5763 5760 5756 5753 5752 5751 5750 5748 5746 5744 5743 5742 5742 5742 5742 5739 5739 5739 5737 5735 5734 5735 5734 5733 5732 5728 5728 5730 5732 5731 5729
5792 5790 5788 5786 5784 5781 5778 5774 5770 5767 5764 5763 5760 5756 5754 5753 5752 5750 5747 5745 5744 5742 5740 5739 5739 5738 5738 5737 5736 5736 5735 5735 5733 5732 5732 5730 5729 5729 5726 5723 5726 5728 5729
5788 5787 5787 5785 5781 5778 5775 5772 5768 5764 5762 5760 5758 5754 5751 5749 5746 5744 5743 5742 5742 5740 5738 5737 5736 5736 5735 5734 5733 5733 5732 5732 5731 5730 5730 5728 5727 5725 5725 5722 5721 5722 5725
5783 5782 5780 5778 5775 5773 5771 5769 5765 5761 5760 5758 5756 5753 5750 5747 5744 5743 5741 5740 5739 5738 5735 5735 5733 5733 5733 5732 5731 5730 5730 5729 5727 5727 5727 5727 5727 5726 5724 5722 5721 5720 5723
5777 5776 5775 5774 5771 5769 5766 5765 5761 5758 5756 5754 5752 5750 5748 5747 5745 5741 5740 5738 5738 5736 5733 5732 5731 5730 5730 5730 5729 5729 5728 5727 5725 5725 5724 5724 5724 5724 5723 5720 5718 5716 5718
5769 5770 5770 5769 5767 5765 5762 5760 5757 5754 5753 5752 5749 5747 5744 5743 5742 5739 5737 5736 5734 5733 5730 5729 5728 5727 5727 5726 5726 5726 5724 5723 5722 5723 5722 5722 5722 5722 5721 5720 5719 5714 5711
5763 5764 5764 5763 5762 5761 5758 5756 5753 5751 5749 5747 5746 5743 5740 5738 5737 5736 5733 5731 5729 5728 5726 5725 5724 5723 5723 5723 5722 5722 5720 5719 5718 5718 5717 5717 5719 5718 5717 5717 5717 5715 5712
5755 5756 5757 5757 5756 5755 5754 5750 5748 5745 5742 5741 5739 5737 5735 5734 5732 5730 5728 5726 5724 5722 5721 5720 5720 5719 5719 5718 5717 5717 5715 5715 5714 5714 5713 5712 5712 5713 5713 5713 5712 5711 5709
5748 5750 5750 5750 5749 5747 5746 5744 5741 5739 5736 5734 5732 5729 5727 5726 5725 5723 5722 5720 5718 5717 5717 5716 5715 5715 5714 5713 5711 5710 5710 5710 5709 5708 5707 5707 5707 5705 5707 5706 5706 5705 5703
5740 5741 5742 5741 5741 5740 5739 5737 5735 5733 5732 5729 5725 5722 5720 5718 5717 5716 5715 5713 5711 5711 5711 5711 5709 5708 5707 5706 5706 5706 5705 5705 5704 5703 5702 5701 5700 5698 5699 5698 5699 5699 5699
5732 5732 5732 5732 5732 5732 5731 5730 5729 5728 5726 5723 5719 5715 5713 5712 5710 5710 5708 5707 5705 5704 5704 5704 5702 5701 5701 5701 5701 5700 5700 5700 5699 5698 5697 5696 5694 5692 5692 5691 5691 5691 5691
5723 5723 5723 5722 5723 5723 5723 5722 5721 5720 5719 5716 5712 5710 5708 5705 5704 5702 5702 5701 5699 5698 5697 5697 5696 5695 5695 5696 5695 5693 5694 5693 5692 5691 5691 5690 5688 5686 5685 5686 5685 5684 5684
5715 5715 5715 5714 5714 5714 5714 5714 5713 5712 5710 5708 5705 5703 5701 5699 5697 5696 5695 5693 5692 5691 5690 5689 5689 5688 5690 5686 5684 5684 5686 5685 5685 5684 5684 5684 5682 5679 5676 5676 5675 5674 5676
5705 5705 5705 5706 5706 5706 5706 5705 5704 5703 5701 5699 5698 5697 5695 5693 5691 5690 5689 5687 5685 5685 5683 5683 5682 5681 5678 5675 5674 5674 5677 5678 5678 5677 5677 5680 5679 5675 5674 5671 5668 5668 5667
5696 5696 5697 5698 5699 5699 5699 5698 5697 5696 5694 5692 5692 5691 5689 5686 5685 5683 5681 5680 5678 5677 5676 5676 5675 5673 5671 5667 5666 5666 5670 5672 5672 5671 5671 5671 5670 5670 5667 5667 5667 5666 5665
5687 5688 5689 5691 5691 5692 5692 5691 5690 5689 5687 5686 5685 5684 5682 5680 5678 5676 5674 5673 5671 5670 5669 5668 5668 5666 5664 5661 5659 5659 5664 5665 5665 5665 5665 5664 5663 5659 5656 5658 5659 5659 5658
5680 5681 5683 5684 5684 5684 5685 5683 5682 5681 5680 5680 5679 5677 5676 5674 5672 5669 5667 5666 5665 5663 5663 5662 5661 5660 5658 5654 5653 5652 5659 5659 5660 5659 5658 5655 5654 5651 5649 5651 5652 5651 5652
5672 5673 5674 5674 5675 5676 5676 5675 5674 5673 5673 5673 5672 5671 5669 5667 5665 5662 5661 5660 5659 5657 5656 5655 5654 5653 5652 5648 5646 5645 5651 5653 5653 5654 5654 5652 5645 5643 5641 5642 5644 5643 5643
5665 5666 5666 5666 5667 5668 5668 5667 5666 5667 5666 5665 5664 5663 5661 5660 5659 5656 5654 5654 5652 5650 5649 5648 5647 5648 5646 5643 5640 5639 5640 5641 5644 5646 5647 5644 5637 5635 5634 5635 5635 5634 5634
5658 5658 5658 5658 5659 5660 5660 5659 5659 5659 5658 5657 5655 5655 5654 5653 5652 5650 5649 5647 5646 5647 5646 5645 5644 5644 5643 5639 5635 5634 5633 5633 5635 5638 5635 5632 5629 5628 5629 5628 5628 5628 5632
5649 5651 5650 5650 5650 5652 5653 5652 5652 5651 5650 5648 5647 5647 5647 5646 5645 5645 5644 5643 5642 5640 5639 5638 5638 5638 5637 5636 5634 5632 5630 5627 5627 5629 5627 5624 5623 5623 5623 5623 5624 5626 5629
5642 5642 5642 5642 5643 5644 5645 5645 5644 5643 5641 5640 5639 5640 5641 5640 5637 5636 5635 5635 5633 5632 5630 5631 5630 5630 5629 5626 5622 5624 5624 5624 5623 5620 5622 5623 5623 5623 5623 5622 5622 5622 5622
5633 5634 5634 5634 5635 5636 5636 5636 5636 5635 5633 5632 5633 5635 5635 5633 5632 5630 5627 5622 5622 5619 5618 5617 5618 5619 5616 5614 5614 5613 5612 5611 5610 5611 5617 5618 5618 5617 5618 5617 5615 5615 5615